Weather in Big Sur

United States     35°58′17″N   121°27′10″W
temp.,
°C
wind,
m/s
gust,
m/s
humid.,
%
clouds,
%
prec.,
mm/h
press.,
hPa
HPBL,
m
16 may, sun
sun1623:00+9wnw229489 0.1 1014277
02:00+9w119467 0.0 1014136
05:00+8sse009352 0.1 1014102
08:00+9s118969 0.0 1016175
11:00+11sw118042 0.0 1016267
14:00+12wsw338347 0.0 1016308
17:00+10w339361 0.0 1015218
20:00+9nw239767 0.0 1016224
17 may, mon
mon1723:00+9wnw239458 0.0 1017238
02:00+8nw239350 0.0 1017226
05:00+8nw229016 0.0 1017170
08:00+10nw228010 0.0 1018190
11:00+12w447547 0.0 1018311
14:00+13wnw577534 0.0 1018365
17:00+14w457025 0.0 1016244
20:00+12nnw237695 0.0 101553
18 may, tue
tue1823:00+12n22591 0.0 101734
02:00+11nnw11610 0.0 101733
05:00+11nne12570 0.0 101725
08:00+15nw11450 0.0 101795
11:00+18wnw44491 0.0 1017545
14:00+18wnw67440 0.0 1016617
17:00+19wnw56373 0.0 1014604
20:00+14nnw4649100 0.0 101465
19 may, wed
wed1923:00+12n3441100 0.0 101655
02:00+11nne2244100 0.0 101546
05:00+9nne2349100 0.0 101555
08:00+12n11472 0.0 1016140
11:00+14wnw65500 0.0 1015504
14:00+14wnw98520 0.0 1014585
17:00+15wnw97470 0.0 1012577
20:00+12nw67530 0.0 1013139
20 may, thu
thu2023:00+8n45580 0.0 1015131
02:00+6n45710 0.0 1016214
05:00+6nne44730 0.0 1016176
08:00+10nnw34490 0.0 1017408
11:00+13wnw88450 0.0 1016848
14:00+13wnw1010440 0.0 1015943
17:00+12wnw1011500 0.0 1015852
20:00+8nw710670 0.0 1016598